Back to catalog

BREEZE-M DEB

LostHEO
NORAD 38632·DEBRIS·🇷🇺 Russia

Launched Mar 14, 2008 from Baikonur Cosmodrome

Loading…

Next Passes (next 24 hours)

TLE

StaleSource: Space-Track

Epoch: Aug 4, 2018, 07:53 UTC

1 38632U 08011CF  18216.32901269 -.00000055  00000-0 -38162-3 0  9997
2 38632  49.1044 186.3618 6488333 154.3948 358.6116  3.15461352 83469

Track BREEZE-M DEB in real time with AllMySat

Download on the App Store